• în Republica Moldova
  • Lista ţărilor
  • Pe 7 zile
  • Temperatura apei
  • Hartă satelitară
  • Meteo pe hartă
  • Widget-uri
  • user-avatar
    Intrare

    Meteo pe oră la Benguela

    Astăzi, 22 August, Marţi

    Timp Temperatura Precipitaţii Vânt Presiune Umiditate
    00:00 +23°C° 0 mm 1 m/s 760 mmHg 85%
    01:00 +23°C° 0 mm 1 m/s 760 mmHg 87%
    02:00 +23°C° 0 mm 1 m/s 760 mmHg 87%
    03:00 +23°C° 0 mm 1 m/s 759 mmHg 87%
    04:00 +23°C° 0 mm 1 m/s 759 mmHg 88%
    05:00 +23°C° 0 mm 1 m/s 759 mmHg 85%
    06:00 +23°C° 0 mm 1 m/s 759 mmHg 82%
    07:00 +24°C° 0 mm 1 m/s 760 mmHg 75%
    08:00 +27°C° 0 mm 1 m/s 760 mmHg 62%
    09:00 +30°C° 0 mm 2 m/s 760 mmHg 50%
    10:00 +34°C° 0 mm 2 m/s 760 mmHg 37%
    11:00 +35°C° 0 mm 3 m/s 759 mmHg 37%
    12:00 +36°C° 0 mm 3 m/s 758 mmHg 36%
    13:00 +36°C° 0 mm 3 m/s 758 mmHg 40%
    14:00 +35°C° 0 mm 3 m/s 757 mmHg 44%
    15:00 +34°C° 0 mm 3 m/s 757 mmHg 48%
    16:00 +33°C° 0 mm 3 m/s 756 mmHg 53%
    17:00 +29°C° 0 mm 2 m/s 757 mmHg 62%
    18:00 +27°C° 0 mm 2 m/s 757 mmHg 72%
    19:00 +25°C° 0 mm 2 m/s 758 mmHg 82%
    20:00 +25°C° 0 mm 1 m/s 758 mmHg 84%
    21:00 +24°C° 0 mm 1 m/s 759 mmHg 86%
    22:00 +24°C° 0 mm 1 m/s 759 mmHg 88%
    23:00 +23°C° 0 mm 1 m/s 759 mmHg 89%

    Mâine, 23 August, Miercuri

    Timp Temperatura Precipitaţii Vânt Presiune Umiditate
    00:00 +23°C° 0 mm 1 m/s 759 mmHg 90%
    01:00 +23°C° 0 mm 1 m/s 759 mmHg 90%
    02:00 +23°C° 0 mm 1 m/s 759 mmHg 91%
    03:00 +22°C° 0 mm 1 m/s 759 mmHg 91%
    04:00 +22°C° 0 mm 1 m/s 758 mmHg 91%
    05:00 +22°C° 0 mm 1 m/s 759 mmHg 91%
    06:00 +22°C° 0 mm 1 m/s 759 mmHg 90%
    07:00 +21°C° 0 mm 2 m/s 760 mmHg 90%
    08:00 +25°C° 0 mm 2 m/s 760 mmHg 76%
    09:00 +28°C° 0 mm 2 m/s 760 mmHg 63%
    10:00 +31°C° 0 mm 2 m/s 760 mmHg 49%
    11:00 +31°C° 0 mm 3 m/s 759 mmHg 47%
    12:00 +33°C° 0 mm 3 m/s 759 mmHg 45%
    13:00 +34°C° 0 mm 3 m/s 758 mmHg 42%
    14:00 +33°C° 0 mm 3 m/s 758 mmHg 46%
    15:00 +31°C° 0 mm 3 m/s 757 mmHg 49%
    16:00 +30°C° 0 mm 3 m/s 757 mmHg 53%
    17:00 +28°C° 0 mm 2 m/s 758 mmHg 61%
    18:00 +27°C° 0 mm 2 m/s 758 mmHg 69%
    19:00 +25°C° 0 mm 1 m/s 759 mmHg 78%
    20:00 +24°C° 0 mm 1 m/s 760 mmHg 80%
    21:00 +24°C° 0 mm 1 m/s 760 mmHg 83%
    22:00 +22°C° 0 mm 0 m/s 761 mmHg 85%
    23:00 +21°C° 0 mm 0 m/s 761 mmHg 86%

    Poimâine, 24 August, Joi

    Timp Temperatura Precipitaţii Vânt Presiune Umiditate
    00:00 +23°C° 0 mm 1 m/s 760 mmHg 86%
    01:00 +23°C° 0 mm 1 m/s 760 mmHg 87%
    02:00 +23°C° 0 mm 1 m/s 760 mmHg 86%
    03:00 +23°C° 0 mm 1 m/s 759 mmHg 85%
    04:00 +22°C° 0 mm 1 m/s 759 mmHg 84%
    05:00 +23°C° 0 mm 1 m/s 759 mmHg 82%
    06:00 +21°C° 0 mm 0 m/s 760 mmHg 79%
    07:00 +22°C° 0 mm 0 m/s 760 mmHg 76%
    08:00 +26°C° 0 mm 1 m/s 760 mmHg 66%
    09:00 +28°C° 0 mm 1 m/s 760 mmHg 56%
    10:00 +31°C° 0 mm 2 m/s 760 mmHg 45%
    11:00 +32°C° 0 mm 2 m/s 760 mmHg 43%
    12:00 +34°C° 0 mm 3 m/s 759 mmHg 41%
    13:00 +35°C° 0 mm 4 m/s 758 mmHg 39%
    14:00 +34°C° 0 mm 4 m/s 758 mmHg 43%
    15:00 +33°C° 0 mm 4 m/s 758 mmHg 48%
    16:00 +31°C° 0 mm 3 m/s 757 mmHg 52%
    17:00 +29°C° 0 mm 3 m/s 758 mmHg 61%
    18:00 +27°C° 0 mm 3 m/s 758 mmHg 69%
    19:00 +25°C° 0 mm 2 m/s 759 mmHg 78%
    20:00 +25°C° 0 mm 2 m/s 760 mmHg 81%
    21:00 +24°C° 0 mm 2 m/s 760 mmHg 84%
    22:00 +24°C° 0 mm 1 m/s 761 mmHg 87%
    23:00 +23°C° 0 mm 1 m/s 761 mmHg 89%

    25 August, Vineri

    Timp Temperatura Precipitaţii Vânt Presiune Umiditate
    00:00 +23°C° 0 mm 1 m/s 760 mmHg 91%
    01:00 +23°C° 0 mm 1 m/s 760 mmHg 93%
    02:00 +23°C° 0 mm 1 m/s 760 mmHg 92%
    03:00 +22°C° 0 mm 1 m/s 760 mmHg 91%
    04:00 +22°C° 0 mm 1 m/s 759 mmHg 90%
    05:00 +23°C° 0 mm 1 m/s 760 mmHg 88%
    06:00 +23°C° 0 mm 1 m/s 760 mmHg 87%
    07:00 +23°C° 0 mm 1 m/s 760 mmHg 85%
    08:00 +26°C° 0 mm 1 m/s 760 mmHg 72%
    09:00 +29°C° 0 mm 1 m/s 760 mmHg 59%
    10:00 +31°C° 0 mm 1 m/s 760 mmHg 46%
    11:00 +32°C° 0 mm 2 m/s 759 mmHg 44%
    12:00 +34°C° 0 mm 3 m/s 758 mmHg 42%
    13:00 +35°C° 0 mm 4 m/s 757 mmHg 39%
    14:00 +34°C° 0 mm 4 m/s 757 mmHg 44%
    15:00 +32°C° 0 mm 4 m/s 756 mmHg 49%
    16:00 +30°C° 0 mm 4 m/s 756 mmHg 54%
    17:00 +28°C° 0 mm 4 m/s 757 mmHg 61%
    18:00 +26°C° 0 mm 3 m/s 757 mmHg 69%
    19:00 +25°C° 0 mm 3 m/s 758 mmHg 76%
    20:00 +24°C° 0 mm 2 m/s 758 mmHg 78%
    21:00 +24°C° 0 mm 2 m/s 759 mmHg 80%
    22:00 +24°C° 0 mm 2 m/s 759 mmHg 82%
    23:00 +23°C° 0 mm 2 m/s 759 mmHg 84%

    26 August, Sâmbătă

    Timp Temperatura Precipitaţii Vânt Presiune Umiditate
    00:00 +23°C° 0 mm 2 m/s 759 mmHg 86%
    01:00 +21°C° 0 mm 2 m/s 758 mmHg 88%
    02:00 +22°C° 0 mm 1 m/s 758 mmHg 90%
    03:00 +22°C° 0 mm 1 m/s 758 mmHg 91%
    04:00 +22°C° 0 mm 1 m/s 758 mmHg 92%
    05:00 +22°C° 0 mm 1 m/s 759 mmHg 91%
    06:00 +22°C° 0 mm 1 m/s 759 mmHg 89%
    07:00 +22°C° 0 mm 1 m/s 760 mmHg 88%
    08:00 +25°C° 0 mm 1 m/s 759 mmHg 77%
    09:00 +27°C° 0 mm 1 m/s 759 mmHg 65%
    10:00 +30°C° 0 mm 2 m/s 759 mmHg 54%
    11:00 +31°C° 0 mm 2 m/s 758 mmHg 50%
    12:00 +33°C° 0 mm 3 m/s 758 mmHg 47%
    13:00 +34°C° 0 mm 4 m/s 757 mmHg 43%
    14:00 +33°C° 0 mm 4 m/s 756 mmHg 48%
    15:00 +30°C° 0 mm 4 m/s 756 mmHg 54%
    16:00 +29°C° 0 mm 4 m/s 756 mmHg 59%
    17:00 +27°C° 0 mm 3 m/s 757 mmHg 67%
    18:00 +25°C° 0 mm 2 m/s 758 mmHg 74%
    19:00 +23°C° 0 mm 2 m/s 759 mmHg 82%
    20:00 +23°C° 0 mm 2 m/s 759 mmHg 82%
    21:00 +23°C° 0 mm 2 m/s 760 mmHg 82%
    22:00 +23°C° 0 mm 1 m/s 760 mmHg 82%
    23:00 +23°C° 0 mm 1 m/s 760 mmHg 83%

    27 August, Duminică

    Timp Temperatura Precipitaţii Vânt Presiune Umiditate
    00:00 +23°C° 0 mm 1 m/s 760 mmHg 84%
    01:00 +22°C° 0 mm 1 m/s 760 mmHg 85%
    02:00 +22°C° 0 mm 1 m/s 760 mmHg 85%
    03:00 +22°C° 0 mm 1 m/s 760 mmHg 86%
    04:00 +22°C° 0 mm 1 m/s 759 mmHg 86%
    05:00 +22°C° 0 mm 1 m/s 760 mmHg 86%
    06:00 +22°C° 0 mm 1 m/s 760 mmHg 87%
    07:00 +22°C° 0 mm 1 m/s 760 mmHg 87%
    08:00 +24°C° 0 mm 1 m/s 760 mmHg 76%
    09:00 +26°C° 0 mm 2 m/s 760 mmHg 65%
    10:00 +29°C° 0 mm 2 m/s 760 mmHg 54%
    11:00 +30°C° 0 mm 3 m/s 759 mmHg 51%
    12:00 +31°C° 0 mm 3 m/s 759 mmHg 48%
    13:00 +33°C° 0 mm 4 m/s 758 mmHg 45%
    14:00 +32°C° 0 mm 4 m/s 757 mmHg 50%
    15:00 +29°C° 0 mm 4 m/s 757 mmHg 55%
    16:00 +28°C° 0 mm 4 m/s 757 mmHg 60%
    17:00 +27°C° 0 mm 3 m/s 758 mmHg 67%
    18:00 +25°C° 0 mm 2 m/s 758 mmHg 73%
    19:00 +24°C° 0 mm 2 m/s 759 mmHg 80%
    20:00 +23°C° 0 mm 1 m/s 760 mmHg 81%
    21:00 +23°C° 0 mm 1 m/s 760 mmHg 82%
    22:00 +23°C° 0 mm 1 m/s 760 mmHg 83%
    23:00 +23°C° 0 mm 1 m/s 760 mmHg 85%
    Arată mai mult